,,PA_Meas_PMT16A,,PR_Meas_QMR101_102,,RH_Meas_QMH101,,SR_Meas_QMS101,,TA_Meas_QMH101,,GenWind,,GenWind,
time,status,PA,status,PR,status,RH,status,SR,status,TA,status,DirAvg,status,SpdAvg,
2010-11-10, 00:00:05,VALID,918.976,VALID,0,VALID,94.4694,VALID,0.107441,VALID,19.6428,VALID,24,VALID,1.33633,
2010-11-10, 00:01:05,VALID,918.987,VALID,0,VALID,94.538,VALID,0.107441,VALID,19.6428,VALID,357,VALID,0.842969,
2010-11-10, 00:02:05,VALID,918.994,VALID,0,VALID,94.4008,VALID,0,VALID,19.5843,VALID,357,VALID,1.32148,
2010-11-10, 00:03:05,VALID,918.982,VALID,0,VALID,94.5685,VALID,0.107441,VALID,19.6428,VALID,32,VALID,0.528516,
2010-11-10, 00:04:05,VALID,918.969,VALID,0,VALID,94.7896,VALID,0.107441,VALID,19.6623,VALID,32,VALID,0.834766,
2010-11-10, 00:05:05,VALID,918.967,VALID,0,VALID,94.7514,VALID,0.107441,VALID,19.6608,VALID,32,VALID,0.854297,
2010-11-10, 00:06:05,VALID,918.965,VALID,0,VALID,94.6676,VALID,0.107441,VALID,19.6428,VALID,32,VALID,0.519141,
2010-11-10, 00:07:05,VALID,918.993,VALID,0,VALID,94.5532,VALID,0.107441,VALID,19.6038,VALID,357,VALID,1.29805,
2010-11-10, 00:08:05,VALID,918.958,VALID,0,VALID,94.3626,VALID,0.107441,VALID,19.6233,VALID,341,VALID,0.5625,
2010-11-10, 00:09:05,VALID,918.957,VALID,0,VALID,94.416,VALID,0.107441,VALID,19.6038,VALID,341,VALID,0.596094,
2010-11-10, 00:10:05,VALID,918.948,VALID,0,VALID,94.3474,VALID,0.107441,VALID,19.6428,VALID,341,VALID,0.166406,
2010-11-10, 00:11:05,VALID,918.942,VALID,0,VALID,94.2864,VALID,0.107441,VALID,19.6233,VALID,341,VALID,0.360547,
2010-11-10, 00:12:05,VALID,918.955,VALID,0,VALID,94.2483,VALID,0.107441,VALID,19.6623,VALID,353,VALID,1.41992,
2010-11-10, 00:13:05,VALID,918.93,VALID,0,VALID,94.3093,VALID,0,VALID,19.6233,VALID,343,VALID,1.24102,
2010-11-10, 00:14:05,VALID,918.947,VALID,0,VALID,94.2635,VALID,0,VALID,19.6248,VALID,343,VALID,1.0043,
2010-11-10, 00:15:05,VALID,918.94,VALID,0,VALID,94.1568,VALID,0,VALID,19.6068,VALID,343,VALID,0.904297,
2010-11-10, 00:16:05,VALID,918.94,VALID,0,VALID,94.2788,VALID,0,VALID,19.6248,VALID,343,VALID,0.537109,
2010-11-10, 00:17:05,VALID,918.955,VALID,0,VALID,94.3398,VALID,0,VALID,19.6053,VALID,344,VALID,1.3543,
2010-11-10, 00:18:05,VALID,918.929,VALID,0,VALID,94.3626,VALID,0,VALID,19.6053,VALID,24,VALID,1.32227,
2010-11-10, 00:19:05,VALID,918.931,VALID,0,VALID,94.416,VALID,0,VALID,19.6248,VALID,26,VALID,1.08242,
2010-11-10, 00:20:05,VALID,918.911,VALID,0,VALID,94.4846,VALID,0.107441,VALID,19.6248,VALID,47,VALID,1.21719,
2010-11-10, 00:21:05,VALID,918.906,VALID,0,VALID,94.6295,VALID,0,VALID,19.6248,VALID,47,VALID,0.932422,
2010-11-10, 00:22:05,VALID,918.897,VALID,0,VALID,94.477,VALID,0,VALID,19.6053,VALID,47,VALID,1.08086,
2010-11-10, 00:23:05,VALID,918.895,VALID,0,VALID,94.5456,VALID,0,VALID,19.6053,VALID,47,VALID,1.11914,
2010-11-10, 00:24:05,VALID,918.886,VALID,0,VALID,94.6066,VALID,0,VALID,19.6053,VALID,5,VALID,1.21914,
2010-11-10, 00:25:05,VALID,918.871,VALID,0,VALID,94.5761,VALID,0,VALID,19.6248,VALID,344,VALID,1.29805,
2010-11-10, 00:26:05,VALID,918.803,VALID,0,VALID,94.5151,VALID,0,VALID,19.6053,VALID,354,VALID,1.0832,
2010-11-10, 00:27:05,VALID,918.789,VALID,0,VALID,94.5227,VALID,0,VALID,19.6053,VALID,355,VALID,1.25664,
2010-11-10, 00:28:05,VALID,918.747,VALID,0,VALID,94.416,VALID,0,VALID,19.5858,VALID,6,VALID,1.65781,
2010-11-10, 00:29:05,VALID,918.785,VALID,0,VALID,94.4846,VALID,0,VALID,19.5858,VALID,360,VALID,0.957812,
2010-11-10, 00:30:05,VALID,918.764,VALID,0,VALID,94.5456,VALID,0,VALID,19.5663,VALID,360,VALID,0.261719,
2010-11-10, 00:31:05,VALID,918.766,VALID,0,VALID,94.599,VALID,0,VALID,19.5663,VALID,360,VALID,0.385938,
2010-11-10, 00:32:05,VALID,918.777,VALID,0,VALID,94.6142,VALID,0,VALID,19.5858,VALID,360,VALID,0.379297,
2010-11-10, 00:33:05,VALID,918.77,VALID,0,VALID,94.6066,VALID,0,VALID,19.5858,VALID,282,VALID,0.396094,
2010-11-10, 00:34:05,VALID,918.728,VALID,0,VALID,94.5227,VALID,0,VALID,19.6053,VALID,283,VALID,0.879687,
2010-11-10, 00:35:05,VALID,918.716,VALID,0,VALID,94.3474,VALID,0,VALID,19.5858,VALID,283,VALID,0.820313,
2010-11-10, 00:36:05,VALID,918.638,VALID,0,VALID,94.3093,VALID,0,VALID,19.5858,VALID,284,VALID,1.20703,
2010-11-10, 00:37:05,VALID,918.609,VALID,0,VALID,94.4465,VALID,0,VALID,19.5663,VALID,28,VALID,1.925,
2010-11-10, 00:38:05,VALID,918.6,VALID,0,VALID,94.4922,VALID,0,VALID,19.5663,VALID,16,VALID,1.50117,
2010-11-10, 00:39:05,VALID,918.587,VALID,0,VALID,94.6142,VALID,0,VALID,19.5453,VALID,6,VALID,1.05977,
2010-11-10, 00:40:05,VALID,918.62,VALID,0,VALID,94.538,VALID,0,VALID,19.5468,VALID,348,VALID,1.30313,
2010-11-10, 00:41:05,VALID,918.618,VALID,0,VALID,94.5761,VALID,0,VALID,19.5273,VALID,360,VALID,0.568359,
2010-11-10, 00:42:05,VALID,918.656,VALID,0,VALID,94.7209,VALID,0,VALID,19.5273,VALID,360,VALID,0.663672,
2010-11-10, 00:43:05,VALID,918.666,VALID,0,VALID,94.7057,VALID,0,VALID,19.5078,VALID,360,VALID,0.469141,
2010-11-10, 00:44:05,VALID,918.655,VALID,0,VALID,94.7591,VALID,0,VALID,19.5273,VALID,360,VALID,0.668359,
2010-11-10, 00:45:05,VALID,918.634,VALID,0,VALID,94.7209,VALID,0,VALID,19.4883,VALID,360,VALID,0.508203,
2010-11-10, 00:46:05,VALID,918.635,VALID,0,VALID,94.7667,VALID,0,VALID,19.5273,VALID,360,VALID,0.706641,
2010-11-10, 00:47:05,VALID,918.658,VALID,0,VALID,94.7286,VALID,0,VALID,19.5273,VALID,360,VALID,1.28906,
2010-11-10, 00:48:05,VALID,918.658,VALID,0,VALID,94.6828,VALID,0,VALID,19.5273,VALID,357,VALID,0.86875,
2010-11-10, 00:49:05,VALID,918.615,VALID,0,VALID,94.5227,VALID,0,VALID,19.5078,VALID,357,VALID,1.12109,
2010-11-10, 00:50:05,VALID,918.567,VALID,0,VALID,94.4922,VALID,0,VALID,19.5273,VALID,357,VALID,0.930078,
2010-11-10, 00:51:05,VALID,918.544,VALID,0,VALID,94.6981,VALID,0,VALID,19.5273,VALID,357,VALID,1.15352,
2010-11-10, 00:52:05,VALID,918.551,VALID,0,VALID,94.6828,VALID,0,VALID,19.5273,VALID,25,VALID,1.44258,
2010-11-10, 00:53:05,VALID,918.536,VALID,0,VALID,94.6828,VALID,0,VALID,19.5078,VALID,333,VALID,0.847656,
2010-11-10, 00:54:05,VALID,918.561,VALID,0,VALID,94.6981,VALID,0,VALID,19.5078,VALID,333,VALID,0.154297,
2010-11-10, 00:55:05,VALID,918.546,VALID,0,VALID,94.7057,VALID,0,VALID,19.5078,VALID,333,VALID,0.222266,
2010-11-10, 00:56:05,VALID,918.541,VALID,0,VALID,94.7896,VALID,0,VALID,19.5468,VALID,333,VALID,0.31875,
2010-11-10, 00:57:05,VALID,918.525,VALID,0,VALID,94.7972,VALID,0,VALID,19.5468,VALID,333,VALID,0,
2010-11-10, 00:58:05,VALID,918.494,VALID,0,VALID,94.8505,VALID,0,VALID,19.5258,VALID,333,VALID,0.803516,
2010-11-10, 00:59:05,VALID,918.501,VALID,0,VALID,94.8582,VALID,0.107441,VALID,19.5663,VALID,333,VALID,1.24688,
2010-11-10, 01:00:05,VALID,918.488,VALID,0,VALID,94.9192,VALID,0.107441,VALID,19.5663,VALID,344,VALID,0.644531,
2010-11-10, 01:01:05,VALID,918.461,VALID,0,VALID,94.8582,VALID,0,VALID,19.5663,VALID,18,VALID,1.58672,
2010-11-10, 01:02:05,VALID,918.447,VALID,0,VALID,94.8277,VALID,0,VALID,19.5468,VALID,17,VALID,1.55273,
2010-11-10, 01:03:05,VALID,918.439,VALID,0,VALID,94.7057,VALID,0,VALID,19.5273,VALID,14,VALID,1.22969,
2010-11-10, 01:04:05,VALID,918.448,VALID,0,VALID,94.66,VALID,0,VALID,19.4673,VALID,15,VALID,0.916797,
2010-11-10, 01:05:05,VALID,918.457,VALID,0,VALID,94.7896,VALID,0,VALID,19.4883,VALID,15,VALID,0.666797,
2010-11-10, 01:06:05,VALID,918.418,VALID,0,VALID,94.7362,VALID,0,VALID,19.4688,VALID,14,VALID,1.03711,
2010-11-10, 01:07:05,VALID,918.388,VALID,0,VALID,94.7591,VALID,0,VALID,19.4688,VALID,14,VALID,1.62852,
2010-11-10, 01:08:05,VALID,918.389,VALID,0,VALID,94.6066,VALID,0,VALID,19.4688,VALID,354,VALID,2.08555,
2010-11-10, 01:09:05,VALID,918.314,VALID,0,VALID,94.5913,VALID,0,VALID,19.4688,VALID,33,VALID,1.71367,
2010-11-10, 01:10:05,VALID,918.35,VALID,0,VALID,94.5913,VALID,0,VALID,19.4493,VALID,23,VALID,1.23789,
2010-11-10, 01:11:05,VALID,918.383,VALID,0,VALID,94.4999,VALID,0,VALID,19.4493,VALID,360,VALID,0.926172,
2010-11-10, 01:12:05,VALID,918.388,VALID,0,VALID,94.4236,VALID,0,VALID,19.4298,VALID,348,VALID,0.953906,
2010-11-10, 01:13:05,VALID,918.369,VALID,0,VALID,94.538,VALID,0,VALID,19.4493,VALID,348,VALID,1.04492,
2010-11-10, 01:14:05,VALID,918.368,VALID,0,VALID,94.5304,VALID,0,VALID,19.4478,VALID,348,VALID,0.461328,
2010-11-10, 01:15:05,VALID,918.366,VALID,0,VALID,94.599,VALID,0,VALID,19.4493,VALID,348,VALID,0.926172,
2010-11-10, 01:16:05,VALID,918.335,VALID,0,VALID,94.5151,VALID,0,VALID,19.4493,VALID,24,VALID,2.01523,
2010-11-10, 01:17:05,VALID,918.34,VALID,0,VALID,94.538,VALID,0,VALID,19.4493,VALID,24,VALID,1.38086,
2010-11-10, 01:18:05,VALID,918.371,VALID,0,VALID,94.5075,VALID,0,VALID,19.4883,VALID,24,VALID,0.869531,
2010-11-10, 01:19:05,VALID,918.387,VALID,0,VALID,94.5151,VALID,0,VALID,19.4493,VALID,24,VALID,0.673437,
2010-11-10, 01:20:05,VALID,918.349,VALID,0,VALID,94.6218,VALID,0,VALID,19.4883,VALID,24,VALID,1.11172,
2010-11-10, 01:21:05,VALID,918.336,VALID,0,VALID,94.4465,VALID,0,VALID,19.4688,VALID,2,VALID,1.16016,
2010-11-10, 01:22:05,VALID,918.378,VALID,0,VALID,94.5456,VALID,0,VALID,19.4883,VALID,2,VALID,0.613281,
2010-11-10, 01:23:05,VALID,918.345,VALID,0,VALID,94.5151,VALID,0,VALID,19.4688,VALID,20,VALID,1.68711,
2010-11-10, 01:24:05,VALID,918.336,VALID,0,VALID,94.5761,VALID,0,VALID,19.5078,VALID,6,VALID,1.13633,
2010-11-10, 01:25:05,VALID,918.332,VALID,0,VALID,94.4313,VALID,0,VALID,19.4688,VALID,360,VALID,1.06836,
2010-11-10, 01:26:05,VALID,918.327,VALID,0,VALID,94.4541,VALID,0,VALID,19.4688,VALID,359,VALID,0.928125,
2010-11-10, 01:27:05,VALID,918.342,VALID,0,VALID,94.4846,VALID,0,VALID,19.4883,VALID,360,VALID,0.738672,
2010-11-10, 01:28:05,VALID,918.352,VALID,0,VALID,94.5913,VALID,0,VALID,19.4493,VALID,360,VALID,0.770703,
2010-11-10, 01:29:05,VALID,918.335,VALID,0,VALID,94.5456,VALID,0,VALID,19.4103,VALID,359,VALID,1.36953,
2010-11-10, 01:30:05,VALID,918.314,VALID,0,VALID,94.5837,VALID,0,VALID,19.4688,VALID,360,VALID,1.13555,
2010-11-10, 01:31:05,VALID,918.301,VALID,0,VALID,94.5761,VALID,0,VALID,19.4493,VALID,26,VALID,1.3582,
2010-11-10, 01:32:05,VALID,918.332,VALID,0,VALID,94.599,VALID,0,VALID,19.4493,VALID,26,VALID,0.419141,
2010-11-10, 01:33:05,VALID,918.343,VALID,0,VALID,94.6218,VALID,0,VALID,19.4493,VALID,26,VALID,0.807422,
2010-11-10, 01:34:05,VALID,918.359,VALID,0,VALID,94.6981,VALID,0,VALID,19.4883,VALID,26,VALID,0.577344,
2010-11-10, 01:35:04,VALID,918.363,VALID,0,VALID,94.6905,VALID,0,VALID,19.4688,VALID,26,VALID,0.969141,
2010-11-10, 01:36:04,VALID,918.369,VALID,0,VALID,94.6371,VALID,0,VALID,19.4688,VALID,26,VALID,0.894922,
2010-11-10, 01:37:04,VALID,918.39,VALID,0,VALID,94.6676,VALID,0,VALID,19.4688,VALID,26,VALID,0.982813,
2010-11-10, 01:38:04,VALID,918.381,VALID,0,VALID,94.6905,VALID,0,VALID,19.5078,VALID,26,VALID,1.18281,
2010-11-10, 01:39:04,VALID,918.321,VALID,0,VALID,94.6981,VALID,0,VALID,19.4673,VALID,29,VALID,2.50781,
2010-11-10, 01:40:04,VALID,918.319,VALID,0,VALID,94.6523,VALID,0,VALID,19.4883,VALID,17,VALID,2.31641,
2010-11-10, 01:41:04,VALID,918.333,VALID,0,VALID,94.6295,VALID,0,VALID,19.4688,VALID,1,VALID,1.29219,
2010-11-10, 01:42:04,VALID,918.331,VALID,0,VALID,94.6905,VALID,0,VALID,19.4298,VALID,15,VALID,2.09492,
2010-11-10, 01:43:04,VALID,918.357,VALID,0,VALID,94.7209,VALID,0,VALID,19.4298,VALID,23,VALID,1.92383,
2010-11-10, 01:44:04,VALID,918.402,VALID,0,VALID,94.8429,VALID,0,VALID,19.4298,VALID,23,VALID,1.38203,
2010-11-10, 01:45:04,VALID,918.38,VALID,0,VALID,94.8353,VALID,0,VALID,19.4493,VALID,23,VALID,1.37773,
2010-11-10, 01:46:04,VALID,918.365,VALID,0,VALID,94.8582,VALID,0,VALID,19.4688,VALID,23,VALID,1.11172,
2010-11-10, 01:47:04,VALID,918.372,VALID,0,VALID,94.7362,VALID,0,VALID,19.4688,VALID,359,VALID,1.00977,
2010-11-10, 01:48:04,VALID,918.378,VALID,0,VALID,94.8277,VALID,0,VALID,19.4673,VALID,360,VALID,0.954687,
2010-11-10, 01:49:04,VALID,918.367,VALID,0,VALID,94.7743,VALID,0,VALID,19.4688,VALID,360,VALID,1.09297,
2010-11-10, 01:50:04,VALID,918.315,VALID,0,VALID,94.7896,VALID,0,VALID,19.4493,VALID,359,VALID,1.41836,
2010-11-10, 01:51:04,VALID,918.35,VALID,0,VALID,94.9573,VALID,0,VALID,19.4688,VALID,360,VALID,0.805078,
2010-11-10, 01:52:04,VALID,918.321,VALID,0,VALID,95.125,VALID,0,VALID,19.4883,VALID,360,VALID,0.871094,
2010-11-10, 01:53:04,VALID,918.257,VALID,0,VALID,95.1479,VALID,0,VALID,19.4883,VALID,360,VALID,1.21172,
2010-11-10, 01:54:04,VALID,918.266,VALID,0,VALID,95.1631,VALID,0,VALID,19.4493,VALID,360,VALID,0.939844,
2010-11-10, 01:55:04,VALID,918.252,VALID,0,VALID,95.3003,VALID,0,VALID,19.4688,VALID,360,VALID,0.751172,
2010-11-10, 01:56:04,VALID,918.206,VALID,0,VALID,95.3766,VALID,0,VALID,19.4703,VALID,360,VALID,1.26797,
2010-11-10, 01:57:04,VALID,918.215,VALID,0,VALID,95.4833,VALID,0,VALID,19.4298,VALID,360,VALID,0.740625,
2010-11-10, 01:58:04,VALID,918.197,VALID,0,VALID,95.5824,VALID,0,VALID,19.4298,VALID,359,VALID,0,
2010-11-10, 01:59:04,VALID,918.159,VALID,0,VALID,95.6053,VALID,0,VALID,19.4103,VALID,360,VALID,1.38945,
2010-11-10, 02:00:04,VALID,918.145,VALID,0,VALID,95.6815,VALID,0,VALID,19.4103,VALID,6,VALID,0.920703,
2010-11-10, 02:01:04,VALID,918.141,VALID,0,VALID,95.7654,VALID,0,VALID,19.3908,VALID,15,VALID,1.575,
2010-11-10, 02:02:04,VALID,918.083,VALID,0,VALID,95.8416,VALID,0,VALID,19.3713,VALID,30,VALID,1.26523,
2010-11-10, 02:03:04,VALID,918.066,VALID,0,VALID,95.9331,VALID,0,VALID,19.3713,VALID,30,VALID,1.13516,
2010-11-10, 02:04:04,VALID,918.054,VALID,0,VALID,96.0398,VALID,0,VALID,19.3713,VALID,30,VALID,1.49453,
2010-11-10, 02:05:04,VALID,918.084,VALID,0,VALID,96.1084,VALID,0,VALID,19.3908,VALID,30,VALID,1.00078,
2010-11-10, 02:06:04,VALID,918.104,VALID,0,VALID,96.1618,VALID,0,VALID,19.3908,VALID,30,VALID,0.846875,
2010-11-10, 02:07:04,VALID,918.07,VALID,0,VALID,96.2304,VALID,0,VALID,19.4103,VALID,30,VALID,0.401953,
2010-11-10, 02:08:04,VALID,918.087,VALID,0,VALID,96.238,VALID,0,VALID,19.4103,VALID,30,VALID,0.965625,
2010-11-10, 02:09:04,VALID,918.027,VALID,0,VALID,96.1618,VALID,0,VALID,19.3518,VALID,30,VALID,0.946875,
2010-11-10, 02:10:04,VALID,918.036,VALID,0,VALID,96.2228,VALID,0,VALID,19.3323,VALID,30,VALID,1.30547,
2010-11-10, 02:11:04,VALID,918.01,VALID,0,VALID,96.2761,VALID,0,VALID,19.3518,VALID,8,VALID,1.18086,
2010-11-10, 02:12:04,VALID,918.019,VALID,0,VALID,96.2914,VALID,0,VALID,19.3113,VALID,9,VALID,1.44062,
2010-11-10, 02:13:04,VALID,918.036,VALID,0,VALID,96.3219,VALID,0,VALID,19.3113,VALID,4,VALID,0.396875,
2010-11-10, 02:14:04,VALID,918.007,VALID,0,VALID,96.3524,VALID,0,VALID,19.2933,VALID,4,VALID,0.985547,
2010-11-10, 02:15:04,VALID,918.016,VALID,0,VALID,96.3524,VALID,0,VALID,19.2933,VALID,4,VALID,0.375,
2010-11-10, 02:16:04,VALID,917.985,VALID,0,VALID,96.3676,VALID,0,VALID,19.2738,VALID,4,VALID,0.492969,
2010-11-10, 02:17:04,VALID,917.969,VALID,0,VALID,96.421,VALID,0,VALID,19.2933,VALID,4,VALID,0.674609,
2010-11-10, 02:18:04,VALID,917.923,VALID,0,VALID,96.4286,VALID,0,VALID,19.2933,VALID,4,VALID,0.764453,
2010-11-10, 02:19:04,VALID,917.91,VALID,0,VALID,96.4667,VALID,0,VALID,19.2738,VALID,4,VALID,0.616406,
2010-11-10, 02:20:04,VALID,917.886,VALID,0,VALID,96.5048,VALID,0,VALID,19.2933,VALID,4,VALID,0.66875,
2010-11-10, 02:21:04,VALID,917.864,VALID,0,VALID,96.5506,VALID,0,VALID,19.3323,VALID,4,VALID,0.575,
2010-11-10, 02:22:04,VALID,917.835,VALID,0,VALID,96.5658,VALID,0,VALID,19.3518,VALID,4,VALID,0.673828,
2010-11-10, 02:23:04,VALID,917.858,VALID,0,VALID,96.5887,VALID,0,VALID,19.3518,VALID,4,VALID,0.377734,
2010-11-10, 02:24:04,VALID,917.83,VALID,0,VALID,96.6039,VALID,0,VALID,19.3518,VALID,4,VALID,0.562891,
2010-11-10, 02:25:04,VALID,917.824,VALID,0,VALID,96.6344,VALID,0,VALID,19.3713,VALID,4,VALID,0.383203,
2010-11-10, 02:26:04,VALID,917.739,VALID,0,VALID,96.6573,VALID,0,VALID,19.4103,VALID,4,VALID,0.501562,
2010-11-10, 02:27:04,VALID,917.75,VALID,0,VALID,96.6192,VALID,0,VALID,19.3908,VALID,4,VALID,0.865625,
2010-11-10, 02:28:04,VALID,917.705,VALID,0,VALID,96.642,VALID,0,VALID,19.3713,VALID,4,VALID,1.01758,
2010-11-10, 02:29:04,VALID,917.71,VALID,0,VALID,96.5887,VALID,0,VALID,19.3518,VALID,4,VALID,0.594531,
2010-11-10, 02:30:04,VALID,917.695,VALID,0,VALID,96.642,VALID,0,VALID,19.3518,VALID,4,VALID,0.630859,
2010-11-10, 02:31:04,VALID,917.692,VALID,0,VALID,96.6268,VALID,0,VALID,19.3518,VALID,4,VALID,0.502734,
2010-11-10, 02:32:04,VALID,917.71,VALID,0,VALID,96.6725,VALID,0,VALID,19.3113,VALID,4,VALID,0.473828,
2010-11-10, 02:33:04,VALID,917.713,VALID,0,VALID,96.6649,VALID,0,VALID,19.3308,VALID,4,VALID,0.591406,
2010-11-10, 02:34:04,VALID,917.684,VALID,0,VALID,96.6878,VALID,0,VALID,19.3518,VALID,4,VALID,0.505469,
2010-11-10, 02:35:04,VALID,917.677,VALID,0,VALID,96.7259,VALID,0,VALID,19.3713,VALID,4,VALID,0.836328,
2010-11-10, 02:36:04,VALID,917.672,VALID,0,VALID,96.7183,VALID,0,VALID,19.3923,VALID,4,VALID,0.823047,
2010-11-10, 02:37:04,VALID,917.662,VALID,0,VALID,96.6802,VALID,0,VALID,19.3713,VALID,4,VALID,0.469141,
2010-11-10, 02:38:04,VALID,917.656,VALID,0,VALID,96.6878,VALID,0,VALID,19.3323,VALID,3,VALID,0.0378906,
2010-11-10, 02:39:04,VALID,917.611,VALID,0,VALID,96.703,VALID,0,VALID,19.3533,VALID,4,VALID,0.576172,
2010-11-10, 02:40:04,VALID,917.597,VALID,0,VALID,96.703,VALID,0,VALID,19.3323,VALID,4,VALID,0.444141,
2010-11-10, 02:41:04,VALID,917.613,VALID,0,VALID,96.6878,VALID,0,VALID,19.3128,VALID,4,VALID,0.412891,
2010-11-10, 02:42:04,VALID,917.597,VALID,0,VALID,96.7335,VALID,0,VALID,19.3128,VALID,4,VALID,0.391016,
2010-11-10, 02:43:04,VALID,917.597,VALID,0,VALID,96.7411,VALID,0,VALID,19.3128,VALID,4,VALID,0.600781,
2010-11-10, 02:44:04,VALID,917.583,VALID,0,VALID,96.764,VALID,0,VALID,19.3518,VALID,4,VALID,0.640625,
2010-11-10, 02:45:04,VALID,917.555,VALID,0,VALID,96.7716,VALID,0,VALID,19.3518,VALID,4,VALID,0.817187,
2010-11-10, 02:46:04,VALID,917.54,VALID,0,VALID,96.7793,VALID,0.107441,VALID,19.3518,VALID,4,VALID,0.741797,
2010-11-10, 02:47:04,VALID,917.566,VALID,0,VALID,96.764,VALID,0,VALID,19.3323,VALID,4,VALID,0.733984,
2010-11-10, 02:48:04,VALID,917.592,VALID,0,VALID,96.7335,VALID,0,VALID,19.2918,VALID,4,VALID,0.260547,
2010-11-10, 02:49:04,VALID,917.567,VALID,0,VALID,96.7793,VALID,0.107441,VALID,19.3113,VALID,4,VALID,0.302344,
2010-11-10, 02:50:04,VALID,917.577,VALID,0,VALID,96.764,VALID,0.107441,VALID,19.3323,VALID,4,VALID,0.188672,
2010-11-10, 02:51:04,VALID,917.582,VALID,0,VALID,96.7411,VALID,0.107441,VALID,19.2918,VALID,4,VALID,0.372266,
2010-11-10, 02:52:04,VALID,917.568,VALID,0,VALID,96.7411,VALID,0.107441,VALID,19.2918,VALID,4,VALID,0.495703,
2010-11-10, 02:53:04,VALID,917.552,VALID,0,VALID,96.7869,VALID,0,VALID,19.2918,VALID,13,VALID,1.51953,
2010-11-10, 02:54:04,VALID,917.604,VALID,0,VALID,96.7945,VALID,0.107441,VALID,19.2918,VALID,17,VALID,1.2457,
2010-11-10, 02:55:04,VALID,917.573,VALID,0,VALID,96.8098,VALID,0.107441,VALID,19.2918,VALID,17,VALID,0.83125,
2010-11-10, 02:56:04,VALID,917.599,VALID,0,VALID,96.8174,VALID,0.107441,VALID,19.2723,VALID,17,VALID,0.513672,
2010-11-10, 02:57:04,VALID,917.571,VALID,0,VALID,96.8021,VALID,0.107441,VALID,19.2723,VALID,17,VALID,0.480469,
2010-11-10, 02:58:04,VALID,917.58,VALID,0,VALID,96.8479,VALID,0,VALID,19.2723,VALID,17,VALID,0.567969,
2010-11-10, 02:59:04,VALID,917.592,VALID,0,VALID,96.8784,VALID,0,VALID,19.3113,VALID,17,VALID,0.913672,
2010-11-10, 03:00:04,VALID,917.562,VALID,0,VALID,96.8631,VALID,0,VALID,19.2918,VALID,27,VALID,1.06797,
2010-11-10, 03:01:04,VALID,917.558,VALID,0,VALID,96.8707,VALID,0.107441,VALID,19.3113,VALID,27,VALID,0.71875,
2010-11-10, 03:02:04,VALID,917.546,VALID,0,VALID,96.8936,VALID,0,VALID,19.3113,VALID,26,VALID,0.64375,
2010-11-10, 03:03:04,VALID,917.547,VALID,0,VALID,96.8479,VALID,0,VALID,19.2918,VALID,26,VALID,0.742188,
2010-11-10, 03:04:04,VALID,917.592,VALID,0,VALID,96.886,VALID,0,VALID,19.2918,VALID,26,VALID,0.464063,
2010-11-10, 03:05:04,VALID,917.578,VALID,0,VALID,96.8936,VALID,0,VALID,19.3113,VALID,27,VALID,0.614844,
2010-11-10, 03:06:04,VALID,917.605,VALID,0,VALID,96.8936,VALID,0,VALID,19.2918,VALID,27,VALID,0.543359,
2010-11-10, 03:07:04,VALID,917.607,VALID,0,VALID,96.8936,VALID,0,VALID,19.2723,VALID,26,VALID,0.820703,
2010-11-10, 03:08:04,VALID,917.62,VALID,0,VALID,96.8936,VALID,0,VALID,19.2723,VALID,27,VALID,0.973047,
2010-11-10, 03:09:04,VALID,917.608,VALID,0,VALID,96.9165,VALID,0,VALID,19.2528,VALID,26,VALID,0.931641,
2010-11-10, 03:10:04,VALID,917.619,VALID,0,VALID,96.9241,VALID,0,VALID,19.2723,VALID,26,VALID,0.900391,
2010-11-10, 03:11:04,VALID,917.611,VALID,0,VALID,96.9317,VALID,0.107441,VALID,19.2918,VALID,27,VALID,1.14063,
2010-11-10, 03:12:04,VALID,917.611,VALID,0,VALID,96.9394,VALID,0.107441,VALID,19.2723,VALID,27,VALID,0.828906,
2010-11-10, 03:13:04,VALID,917.647,VALID,0,VALID,96.9698,VALID,0,VALID,19.2528,VALID,27,VALID,0.615234,
2010-11-10, 03:14:04,VALID,917.657,VALID,0,VALID,96.947,VALID,0,VALID,19.2723,VALID,26,VALID,0.564062,
2010-11-10, 03:15:04,VALID,917.644,VALID,0,VALID,96.9698,VALID,0,VALID,19.2723,VALID,27,VALID,0.197266,
2010-11-10, 03:16:04,VALID,917.654,VALID,0,VALID,96.9698,VALID,0,VALID,19.3128,VALID,27,VALID,0.584766,
2010-11-10, 03:17:04,VALID,917.656,VALID,0,VALID,96.9546,VALID,0.107441,VALID,19.2723,VALID,26,VALID,0.920703,
2010-11-10, 03:18:04,VALID,917.671,VALID,0,VALID,96.9851,VALID,0.107441,VALID,19.2723,VALID,26,VALID,0.86875,
2010-11-10, 03:19:04,VALID,917.625,VALID,0,VALID,96.9775,VALID,0,VALID,19.2723,VALID,26,VALID,1.27461,
2010-11-10, 03:20:04,VALID,917.608,VALID,0,VALID,97.0156,VALID,0,VALID,19.2933,VALID,27,VALID,1.20352,
2010-11-10, 03:21:04,VALID,917.602,VALID,0,VALID,96.9775,VALID,0.107441,VALID,19.2528,VALID,25,VALID,2.06602,
2010-11-10, 03:22:04,VALID,917.605,VALID,0,VALID,97.008,VALID,0,VALID,19.2723,VALID,25,VALID,0.973828,
2010-11-10, 03:23:04,VALID,917.616,VALID,0,VALID,96.9775,VALID,0,VALID,19.2738,VALID,25,VALID,0.418359,
2010-11-10, 03:24:04,VALID,917.614,VALID,0,VALID,97.0537,VALID,0,VALID,19.2723,VALID,25,VALID,0.730078,
2010-11-10, 03:25:04,VALID,917.635,VALID,0,VALID,97.0766,VALID,0.107441,VALID,19.3113,VALID,25,VALID,1.28164,
2010-11-10, 03:26:04,VALID,917.581,VALID,0,VALID,97.0842,VALID,0.107441,VALID,19.3308,VALID,25,VALID,0.770312,
2010-11-10, 03:27:04,VALID,917.607,VALID,0,VALID,97.0537,VALID,0,VALID,19.3308,VALID,25,VALID,0.875781,
2010-11-10, 03:28:04,VALID,917.604,VALID,0,VALID,97.0766,VALID,0,VALID,19.3308,VALID,25,VALID,1.08086,
2010-11-10, 03:29:04,VALID,917.607,VALID,0,VALID,97.0003,VALID,0,VALID,19.3128,VALID,25,VALID,1.46445,
2010-11-10, 03:30:04,VALID,917.592,VALID,0,VALID,97.0308,VALID,0,VALID,19.2933,VALID,360,VALID,1.41875,
2010-11-10, 03:31:04,VALID,917.6,VALID,0,VALID,97.0613,VALID,0,VALID,19.2933,VALID,1,VALID,0.879687,
2010-11-10, 03:32:04,VALID,917.64,VALID,0,VALID,97.0461,VALID,0,VALID,19.3128,VALID,17,VALID,1.11484,
2010-11-10, 03:33:04,VALID,917.634,VALID,0,VALID,97.0613,VALID,0,VALID,19.2933,VALID,353,VALID,0.990625,
2010-11-10, 03:34:04,VALID,917.619,VALID,0,VALID,97.0918,VALID,0,VALID,19.3128,VALID,7,VALID,1.15586,
2010-11-10, 03:35:04,VALID,917.65,VALID,0,VALID,97.0842,VALID,0,VALID,19.3128,VALID,23,VALID,1.66484,
2010-11-10, 03:36:04,VALID,917.638,VALID,0,VALID,97.1071,VALID,0,VALID,19.3323,VALID,23,VALID,0.81875,
2010-11-10, 03:37:04,VALID,917.65,VALID,0,VALID,97.0842,VALID,0,VALID,19.3323,VALID,23,VALID,1.18438,
2010-11-10, 03:38:04,VALID,917.638,VALID,0,VALID,97.0537,VALID,0,VALID,19.2933,VALID,23,VALID,1.30391,
2010-11-10, 03:39:04,VALID,917.618,VALID,0,VALID,97.0918,VALID,0,VALID,19.3143,VALID,24,VALID,0.790234,
2010-11-10, 03:40:04,VALID,917.624,VALID,0,VALID,97.1147,VALID,0,VALID,19.3128,VALID,23,VALID,0.907422,
2010-11-10, 03:41:04,VALID,917.63,VALID,0,VALID,97.1071,VALID,0,VALID,19.3128,VALID,24,VALID,0.830469,
2010-11-10, 03:42:04,VALID,917.62,VALID,0,VALID,97.1299,VALID,0,VALID,19.3128,VALID,23,VALID,0.838672,
2010-11-10, 03:43:04,VALID,917.649,VALID,0,VALID,97.1452,VALID,0,VALID,19.3533,VALID,24,VALID,0.316797,
2010-11-10, 03:44:04,VALID,917.64,VALID,0,VALID,97.1071,VALID,0,VALID,19.3308,VALID,24,VALID,0.867578,
2010-11-10, 03:45:04,VALID,917.63,VALID,0,VALID,97.1223,VALID,0,VALID,19.3113,VALID,23,VALID,0.519922,